[[{"header":{"parameterUnit":"m.s-1","parameterCategory":1,"la1":30.2992,"la2":30.254,"lo1":-89.0895,"lo2":-89.0443,"dy":0.0025,"dx":0.0025,"nx":19,"ny":19,"refTime":"2026-05-19T09:00:00:Z","depth":0,"parameterNumber":2,"parameterNumberName":"U-component_of_WINDS"},"data":[0,0,0,-2.9119,-2.912,-2.9158,-2.9158,-2.9223,-2.9224,0,0,0,0,0,0,0,0,0,0,0,-2.9116,-2.9117,-2.9119,-2.912,-2.9158,-2.9158,-2.9223,-2.9224,0,0,0,0,0,0,0,0,0,0,0,-2.9116,-2.9116,-2.9117,-2.912,-2.9158,-2.9158,-2.9223,-2.9188,0,0,0,0,0,0,0,0,0,0,-2.9148,-2.9154,-2.9116,-2.9117,-2.912,-2.9158,-2.9158,-2.9186,-2.919,-2.9212,0,-2.9233,0,-2.923,-2.9229,-2.9229,0,0,0,-2.9113,-2.9151,-2.9153,-2.9118,-2.9121,-2.9158,-2.9139,-2.9188,-2.9193,-2.9218,-2.9234,-2.9236,-2.9231,-2.923,-2.923,-2.9375,-2.9376,0,0,-2.9111,-2.9128,-2.915,-2.9157,-2.9151,-2.9138,-2.914,-2.9191,-2.921,-2.9234,-2.9237,-2.9232,-2.923,-2.9231,-2.9374,-2.9376,0,0,0,-2.9109,-2.9126,-2.9127,-2.9155,-2.916,-2.9139,-2.9142,-2.9208,-2.9207,-2.9238,-2.9233,-2.9231,-2.9232,-2.9373,-2.9375,-2.9439,0,0,0,-2.9108,-2.9125,-2.9127,-2.9137,-2.916,-2.9184,-2.9158,-2.9203,-2.9208,-2.9232,-2.9231,-2.9232,-2.9372,-2.9374,-2.9435,-2.9466,0,0,0,-2.911,-2.9125,-2.9134,-2.9138,-2.9155,-2.9183,-2.9185,-2.9204,-2.9206,-2.9229,-2.9232,-2.9371,-2.9374,-2.9431,-2.946,-2.9509,0,0,0,-2.9118,-2.9191,-2.9135,-2.9215,-2.9155,-2.9223,-2.9184,-2.9234,-2.9262,-2.9231,-2.9372,-2.9375,-2.943,-2.9456,-2.9505,-2.9552,-2.9573,0,0,-2.9219,-2.9203,-2.9249,-2.92,-2.9282,-2.9216,-2.9307,-2.9317,-2.9305,-2.9353,-2.9356,-2.9436,-2.9459,-2.9508,-2.9689,-2.9706,0,0,0,-2.9286,-2.9319,-2.9337,-2.9364,-2.9374,-2.9385,-2.938,-2.9384,-2.9424,-2.9333,-2.9467,-2.948,-2.9508,-2.953,-2.9544,-2.9567,-2.9386,-2.9385,-2.9385,-2.9452,-2.9432,-2.9505,-2.9491,-2.9518,-2.9512,-2.9533,-2.9537,-2.9509,-2.9541,-2.9555,-2.9667,-2.9694,-2.9704,-2.9728,-2.9579,-2.9579,-2.958,-2.958,-2.9597,-2.9639,-2.9601,-2.9659,-2.9638,-2.9686,-2.9685,-2.9663,-2.9705,-2.9655,-2.9679,-2.9625,-2.9724,-2.9743,-2.9584,-2.9584,-2.9583,-2.9583,-2.9582,-2.9702,-2.9719,-2.9723,-2.9761,-2.9793,-2.9776,-2.9818,-2.9798,-2.9779,-2.9802,-2.9814,-2.9813,-2.9809,-2.981,-2.981,-2.9811,-2.9811,-2.9811,-2.9812,-2.9809,-2.9811,-2.9849,-2.9866,-2.9882,-2.9899,-2.9896,-2.991,-2.9921,-2.9903,-2.9903,-2.9872,-2.9738,-2.9703,-2.9817,-2.9816,-2.9816,-2.9815,-2.9815,-2.9961,-2.9924,-2.9982,-2.9998,-3.0017,-3.005,-3.0024,-3.0056,-3.0065,-3.0087,-3.0052,-2.9956,-2.9938,-2.9927,-2.9898,-3.0056,-3.0056,-3.0056,-3.0056,-3.0049,-3.0039,-3.0094,-3.012,-3.0144,-3.0127,-3.0194,-3.0193,-3.0185,-3.019,-3.0164,-3.0126,-3.0115,-3.0104,-3.0088,-3.0061,-3.0257,-3.0257,-3.0257,-3.0142,-3.0133,-3.0194,-3.0185,-3.0199,-3.0212,-3.0274,-3.0307,-3.029,-3.0265,-3.0193,-3.0184,-3.0122,-3.0102,-3.0074,-3.005,-3.0,0,0]},{"header":{"parameterUnit":"m.s-1","parameterCategory":1,"la1":30.2992,"la2":30.254,"lo1":-89.0895,"lo2":-89.0443,"dy":0.0025,"dx":0.0025,"nx":19,"ny":19,"refTime":"2026-05-19T09:00:00:Z","depth":0,"parameterNumber":3,"parameterNumberName":"V-component_of_WINDS"},"data":[0,0,0,2.2996,2.2997,2.3062,2.3062,2.3145,2.3146,0,0,0,0,0,0,0,0,0,0,0,2.2978,2.2979,2.2996,2.2998,2.3062,2.3062,2.3145,2.3146,0,0,0,0,0,0,0,0,0,0,0,2.2978,2.2979,2.2979,2.2998,2.3062,2.3062,2.3145,2.3096,0,0,0,0,0,0,0,0,0,0,2.3033,2.3018,2.2978,2.2979,2.2998,2.3062,2.3062,2.3093,2.3099,2.3117,0,2.3134,0,2.3141,2.3152,2.3152,0,0,0,2.2996,2.3014,2.303,2.298,2.2999,2.3061,2.3032,2.3096,2.3103,2.3124,2.3135,2.3138,2.3143,2.3152,2.3153,2.3263,2.3264,0,0,2.2993,2.299,2.3026,2.3034,2.3025,2.303,2.3034,2.31,2.3111,2.3135,2.314,2.3144,2.3153,2.3153,2.3263,2.3264,0,0,0,2.2983,2.2988,2.3002,2.3031,2.3042,2.3032,2.3037,2.3108,2.3114,2.3141,2.3145,2.3153,2.3154,2.3262,2.3263,2.3291,0,0,0,2.2981,2.2982,2.3001,2.3,2.3041,2.3076,2.3044,2.3109,2.3116,2.3145,2.3153,2.3155,2.3262,2.3263,2.3288,2.3304,0,0,0,2.2974,2.2981,2.2991,2.3,2.3027,2.3075,2.3084,2.3111,2.3119,2.3152,2.3155,2.3261,2.3263,2.3286,2.3301,2.3333,0,0,0,2.2964,2.3013,2.2992,2.3048,2.3027,2.3092,2.3084,2.3132,2.3163,2.3154,2.3262,2.3263,2.3286,2.3299,2.3331,2.3361,2.3373,0,0,2.3024,2.302,2.3054,2.3036,2.3105,2.3082,2.3155,2.3185,2.3189,2.3238,2.3241,2.3289,2.33,2.3333,2.3439,2.3449,0,0,0,2.3072,2.3096,2.3115,2.3145,2.3171,2.3194,2.3213,2.3225,2.3267,2.3214,2.3309,2.3316,2.3335,2.3349,2.3358,2.3375,2.3269,2.3269,2.3269,2.3153,2.3158,2.3214,2.3227,2.3257,2.3278,2.3302,2.3321,2.3316,2.3338,2.3353,2.3417,2.3434,2.344,2.3458,2.3368,2.3369,2.3369,2.3369,2.3242,2.3277,2.3271,2.3324,2.3329,2.3372,2.3395,2.339,2.3431,2.3406,2.3423,2.3396,2.345,2.3466,2.3371,2.3371,2.337,2.337,2.337,2.3296,2.3314,2.3328,2.3375,2.3409,2.3421,2.3461,2.3464,2.3466,2.3483,2.3499,2.3499,2.35,2.3491,2.3491,2.3491,2.3491,2.3491,2.3492,2.3347,2.3362,2.3397,2.343,2.3451,2.3478,2.3501,2.3521,2.3544,2.3543,2.3543,2.3536,2.3455,2.3434,2.3495,2.3494,2.3494,2.3494,2.3493,2.3437,2.3417,2.3471,2.3492,2.3531,2.3567,2.357,2.3611,2.3628,2.3649,2.3639,2.3578,2.3573,2.3567,2.355,2.3637,2.3637,2.3637,2.3637,2.3483,2.3481,2.3538,2.3572,2.3605,2.3614,2.3675,2.3693,2.3709,2.372,2.3708,2.3686,2.3679,2.3678,2.3669,2.3654,2.3765,2.3766,2.3766,2.3539,2.3541,2.3592,2.3609,2.364,2.3667,2.3725,2.3764,2.3777,2.3771,2.3729,2.3723,2.3688,2.3676,2.3669,2.3655,2.3627,0,0]}]]